Temp
1 1 1 2 2 2 1 2 1 2 2 2 2 2 3 3 3 3 3 4 4 6 6 5 7 11 11 11 7 1 3 2 2 5 6 5 6 7 8 11 10 7 5 6 5 6 7 10 8 6 6 7 6 7
2 1 1 1 1 2 2 1 1 1 1 1 2 3 3 3 3 3 2 3 3 5 2 3 2 5 8 9 7 3 6 3 4 5 4 5 5 6 8 7 11 6 8 7 8 8 9 8 7 7 7 7 6 6
1 1 1 1 2 2 1 1 1 1 1 1 2 2 3 2 2 3 3 3 3 2 0 2 1 2 5 7 8 4 2 4 3 4 3 2 5 5 5 5 7 9 10 7 7 9 8 7 8 8 8 7 7 7
1 1 1 1 1 1 1 1 1 1 1 2 2 3 3 2 2 2 2 3 3 3 -0 -2 -0 0 2 4 5 7 8 4 3 2 0 2 3 6 4 7 8 9 9 8 6 7 8 7 8 7 7 7 6 6
1 1 1 2 1 1 1 0 1 1 2 2 3 3 3 3 2 2 2 3 3 5 -1 -2 -1 -1 0 2 3 4 4 3 1 -0 1 3 5 6 7 7 7 9 8 6 6 8 7 7 6 6 6 6 5 5
1 0 1 1 1 1 1 1 2 2 2 3 3 3 2 2 2 3 3 4 4 4 1 -1 -3 -2 -1 0 1 1 1 1 0 1 3 6 5 6 7 7 9 8 9 8 7 6 6 5 5 5 5 5 5 5
1 1 1 1 1 2 2 2 2 2 2 2 2 2 2 2 3 3 5 5 5 4 1 -1 -1 -2 -2 -1 -1 -1 -0 0 2 4 5 6 5 5 6 7 8 6 6 6 5 5 4 5 5 5 5 4 3 3
1 1 1 2 2 2 2 2 2 2 2 2 2 3 2 2 2 3 3 4 4 4 0 -0 -1 -1 -1 -1 -1 -1 0 2 4 5 6 7 4 6 5 8 7 6 5 5 5 4 4 4 3 3 3 2 2 1
1 1 1 2 2 2 2 2 2 1 1 2 2 0 1 2 0 -1 0 2 3 3 -1 -0 1 1 -1 -1 -1 -0 2 3 4 5 6 6 6 4 7 8 6 4 4 4 4 3 2 1 0 -1 -1 -2 -2 -3
1 1 1 1 2 2 2 2 1 1 2 2 1 0 -1 -1 -0 1 2 2 0 -1 0 2 2 -0 0 -0 1 3 4 3 3 6 5 5 7 6 5 5 4 3 3 1 -0 -1 -2 -3 -4 -5 -5 -5 -6 -6
1 1 2 2 2 2 2 2 1 1 1 0 -1 -2 -2 -2 -1 -1 -1 -0 -0 1 1 2 1 1 1 3 3 4 4 5 5 4 5 5 5 3 4 3 3 1 -1 -2 -2 -3 -4 -5 -5 -6 -6 -6 -7 -6
1 1 2 2 1 1 1 1 1 1 0 1 -1 -3 -3 -1 -0 1 1 2 4 3 4 3 1 3 4 5 5 6 5 5 5 5 4 5 4 4 4 2 0 -1 -2 -3 -3 -4 -5 -6 -6 -6 -7 -7 -8 -7
2 1 2 2 2 2 1 1 1 1 1 2 2 -2 -0 -1 2 3 2 5 4 5 3 3 3 4 4 5 5 5 3 4 4 3 4 3 3 2 1 0 -1 -2 -3 -4 -5 -5 -6 -7 -7 -8 -8 -8 -8 -9
1 1 1 1 1 0 0 0 0 -0 1 -0 0 0 2 2 5 6 6 5 5 4 4 4 5 5 5 4 5 3 5 4 4 4 5 1 2 1 -0 -1 -2 -3 -4 -4 -4 -5 -7 -7 -8 -8 -8 -8 -8 -9
1 1 1 -0 -1 -1 -0 -1 -0 -0 -1 -1 1 1 0 1 3 4 4 4 4 4 5 6 5 5 4 2 4 4 3 4 5 6 3 2 0 -1 -2 -3 -3 -4 -4 -5 -5 -6 -7 -7 -8 -8 -8 -8 -9 -9
-0 -1 -1 -1 -1 -1 -0 -1 -1 -1 -0 1 1 1 1 3 3 3 4 4 5 6 6 6 5 4 4 4 4 4 5 5 5 2 0 -1 -2 -3 -4 -4 -5 -5 -5 -5 -6 -6 -7 -7 -8 -8 -8 -8 -9 -9
-1 -3 -1 -1 -1 0 -0 -1 -1 0 -0 0 1 2 3 3 3 4 5 6 6 6 5 6 5 5 6 5 6 7 5 2 1 -0 -0 -1 -2 -3 -4 -6 -6 -6 -6 -6 -6 -7 -8 -8 -8 -8 -8 -9 -9 -10
-2 -1 -0 1 1 -0 0 1 1 -0 -0 -1 0 1 3 3 4 5 6 6 7 7 6 5 6 5 5 6 4 4 1 -0 -1 -2 -2 -2 -3 -4 -4 -6 -6 -6 -6 -7 -8 -8 -8 -8 -8 -8 -9 -10 -10 -10
1 2 2 2 0 0 1 1 1 -0 -0 1 1 2 2 3 3 4 4 4 5 5 5 6 6 6 6 6 4 1 -1 -2 -3 -3 -3 -3 -4 -5 -6 -6 -7 -7 -7 -8 -8 -8 -9 -9 -9 -9 -10 -11 -11 -12
0 0 1 1 1 2 3 2 3 2 2 2 2 2 2 2 2 3 4 4 4 4 5 5 5 5 4 3 2 0 -1 -2 -2 -3 -4 -5 -6 -6 -6 -6 -6 -7 -7 -8 -8 -9 -9 -9 -9 -10 -11 -12 -13 -13
1 1 1 1 1 3 3 3 3 3 3 3 3 3 3 3 3 3 3 4 3 4 4 3 2 1 1 1 0 -0 -1 -1 -1 -2 -3 -5 -5 -5 -6 -7 -7 -8 -8 -8 -9 -9 -10 -10 -11 -12 -13 -13 -14 -14
2 2 2 2 2 1 3 3 3 3 4 3 3 3 2 2 3 2 3 3 3 2 2 1 0 -0 -0 -0 -0 -1 -0 -1 -1 -2 -3 -4 -5 -5 -6 -7 -7 -8 -8 -9 -9 -10 -11 -11 -12 -13 -13 -14 -14 -14
4 2 2 1 -0 0 0 2 3 3 3 4 4 4 3 3 3 3 3 3 1 1 0 -0 -0 -1 -1 -2 -2 -2 -1 -2 -3 -4 -4 -5 -5 -6 -6 -7 -8 -9 -9 -9 -11 -11 -11 -12 -13 -14 -13 -14 -14 -14
4 0 -1 -0 -0 -1 0 1 3 3 4 4 4 3 3 3 2 4 4 3 0 0 -0 -1 -2 -2 -3 -3 -3 -3 -3 -3 -4 -5 -5 -5 -6 -7 -7 -8 -9 -9 -10 -10 -11 -12 -12 -13 -13 -13 -14 -14 -14 -15
1 -3 -1 -1 0 -0 -0 0 2 2 1 2 2 2 2 2 3 3 3 1 0 -0 -0 -1 -2 -1 -2 -2 -3 -3 -4 -4 -4 -5 -6 -6 -6 -7 -8 -8 -9 -10 -10 -10 -12 -12 -12 -13 -14 -14 -14 -14 -15 -15
-2 -2 -0 -0 0 1 2 0 0 1 2 1 2 3 2 3 2 2 4 1 -0 -1 -1 -1 -1 -1 -1 -1 -2 -3 -4 -4 -5 -5 -6 -6 -7 -8 -8 -9 -10 -11 -10 -10 -11 -12 -13 -13 -14 -14 -14 -14 -15 -16
-1 -1 -0 1 2 2 2 2 3 2 0 0 1 1 1 2 2 2 -0 -0 -2 -2 -1 -1 -1 -1 -1 -2 -3 -4 -5 -5 -6 -6 -7 -8 -8 -8 -9 -9 -9 -10 -10 -10 -10 -11 -13 -14 -14 -15 -15 -15 -15 -16
-1 -0 -1 -1 0 1 0 1 0 0 1 2 2 1 1 2 1 -1 -2 -2 -1 -3 -3 -2 -1 -1 -2 -3 -4 -5 -6 -6 -7 -7 -8 -8 -8 -8 -8 -8 -9 -9 -10 -10 -11 -11 -11 -12 -14 -15 -15 -15 -15 -16
-1 -1 -2 -3 -0 -0 0 0 1 0 1 1 1 1 0 -3 -3 -4 -4 -3 -3 -3 -3 -3 -3 -3 -3 -4 -4 -5 -5 -6 -6 -7 -7 -8 -8 -8 -8 -8 -9 -10 -10 -10 -11 -11 -12 -12 -12 -13 -13 -13 -14 -16
-3 -1 -1 -1 -1 -2 -4 -4 -3 -3 -1 -1 -1 -2 -4 -5 -5 -5 -4 -4 -4 -4 -3 -3 -3 -3 -3 -3 -5 -6 -6 -7 -7 -7 -7 -8 -9 -9 -8 -9 -9 -9 -10 -11 -11 -11 -12 -12 -12 -13 -14 -15 -16 -15
-3 -2 -2 -2 -3 -5 -6 -5 -4 -4 -4 -3 -2 -3 -4 -6 -6 -5 -5 -5 -5 -5 -4 -3 -4 -4 -4 -4 -5 -6 -8 -7 -8 -8 -8 -8 -8 -8 -9 -9 -9 -10 -10 -11 -11 -12 -13 -13 -14 -15 -15 -16 -15 -15
-3 -3 -1 -3 -4 -5 -5 -5 -4 -4 -4 -3 -4 -4 -4 -4 -4 -6 -6 -6 -5 -5 -5 -5 -5 -5 -5 -5 -6 -6 -6 -6 -6 -7 -7 -8 -8 -8 -9 -9 -10 -10 -11 -11 -11 -12 -12 -12 -13 -15 -15 -15 -16 -15
-4 -3 -3 -3 -3 -4 -5 -3 -3 -4 -4 -4 -5 -5 -5 -4 -4 -7 -6 -6 -6 -6 -6 -6 -6 -6 -6 -6 -6 -6 -7 -7 -7 -7 -8 -8 -8 -9 -9 -10 -10 -10 -11 -11 -11 -12 -12 -12 -13 -13 -14 -14 -14 -14
Height
1182 1196 1209 1222 1234 1246 1257 1268 1280 1292 1304 1316 1329 1340 1352 1363 1373 1381 1388 1396 1401 1396 1398 1398 1396 1397 1403 1406 1419 1439 1447 1453 1460 1460 1461 1461 1460 1456 1451 1442 1445 1458 1466 1463 1465 1460 1450 1442 1447 1453 1452 1451 1451 1451
1174 1188 1203 1215 1228 1240 1251 1262 1274 1286 1299 1311 1323 1334 1346 1357 1365 1375 1384 1389 1396 1393 1397 1398 1396 1394 1397 1404 1413 1428 1427 1435 1442 1450 1454 1456 1453 1453 1448 1445 1438 1453 1448 1451 1449 1447 1446 1446 1448 1450 1450 1450 1451 1450
1174 1187 1200 1211 1223 1235 1246 1257 1268 1281 1294 1305 1317 1329 1339 1351 1360 1368 1378 1386 1392 1394 1399 1399 1399 1396 1395 1400 1405 1414 1425 1427 1432 1436 1445 1452 1450 1450 1448 1449 1445 1444 1444 1450 1449 1445 1446 1447 1447 1447 1447 1447 1446 1444
1176 1187 1198 1210 1220 1232 1243 1255 1267 1278 1290 1302 1313 1324 1334 1344 1354 1364 1370 1377 1386 1386 1397 1405 1401 1398 1397 1399 1403 1404 1410 1420 1426 1435 1442 1446 1447 1445 1447 1443 1440 1439 1441 1444 1446 1446 1447 1445 1446 1445 1444 1444 1443 1441
1178 1188 1199 1208 1220 1232 1243 1254 1265 1277 1288 1298 1308 1319 1329 1339 1349 1357 1363 1370 1378 1383 1393 1403 1402 1401 1400 1401 1403 1406 1411 1415 1426 1435 1439 1441 1442 1443 1442 1442 1438 1436 1438 1444 1446 1444 1445 1446 1446 1446 1445 1443 1441 1438
1180 1188 1200 1212 1223 1234 1244 1256 1266 1276 1286 1296 1305 1314 1324 1334 1343 1352 1361 1361 1370 1375 1386 1404 1409 1406 1405 1405 1406 1410 1414 1419 1425 1431 1435 1435 1437 1440 1436 1433 1433 1435 1436 1439 1442 1444 1445 1446 1445 1444 1441 1439 1437 1435
1186 1195 1206 1216 1227 1237 1248 1257 1266 1275 1284 1293 1300 1308 1317 1328 1334 1341 1340 1344 1359 1368 1376 1401 1408 1410 1410 1410 1413 1417 1420 1424 1428 1430 1431 1432 1436 1435 1436 1431 1435 1439 1441 1442 1444 1445 1444 1443 1442 1440 1439 1437 1435 1433
1192 1202 1212 1221 1231 1240 1249 1258 1266 1274 1282 1290 1296 1305 1312 1317 1323 1335 1337 1344 1355 1358 1372 1391 1406 1411 1411 1413 1417 1420 1425 1428 1428 1428 1429 1429 1435 1436 1436 1431 1436 1440 1442 1443 1443 1443 1442 1441 1440 1440 1439 1437 1434 1433
1202 1210 1219 1227 1235 1243 1251 1259 1266 1274 1280 1286 1294 1301 1311 1313 1318 1329 1337 1342 1347 1358 1369 1381 1388 1400 1408 1412 1416 1422 1423 1425 1427 1427 1427 1430 1431 1434 1430 1431 1435 1440 1443 1442 1442 1443 1443 1444 1444 1443 1440 1438 1435 1432
1209 1218 1225 1233 1240 1246 1253 1260 1267 1275 1281 1288 1297 1302 1310 1315 1323 1330 1342 1342 1348 1356 1365 1371 1377 1389 1399 1406 1413 1417 1418 1422 1424 1425 1428 1429 1425 1429 1433 1436 1439 1440 1442 1443 1443 1446 1446 1445 1444 1443 1441 1441 1438 1434
1215 1223 1231 1237 1243 1250 1256 1263 1269 1276 1281 1288 1295 1305 1312 1317 1322 1329 1338 1344 1354 1358 1364 1369 1375 1379 1396 1396 1402 1407 1413 1415 1415 1424 1424 1424 1424 1433 1435 1437 1440 1442 1444 1446 1447 1448 1448 1446 1444 1443 1441 1440 1437 1435
1222 1230 1236 1242 1248 1253 1259 1266 1271 1276 1280 1286 1293 1309 1317 1320 1325 1332 1339 1344 1343 1350 1356 1363 1372 1377 1387 1393 1399 1404 1408 1409 1408 1421 1421 1417 1426 1431 1434 1438 1442 1444 1446 1447 1448 1449 1447 1445 1443 1442 1441 1439 1436 1433
1225 1232 1238 1243 1250 1254 1260 1267 1274 1279 1283 1290 1298 1309 1312 1317 1320 1323 1330 1326 1332 1336 1349 1356 1368 1376 1385 1390 1397 1400 1407 1409 1414 1417 1413 1421 1425 1430 1434 1437 1440 1442 1445 1446 1446 1446 1445 1443 1441 1440 1439 1437 1434 1432
1225 1233 1239 1243 1248 1255 1264 1270 1276 1280 1287 1293 1303 1309 1309 1311 1304 1299 1302 1310 1321 1331 1344 1355 1362 1370 1379 1385 1391 1400 1403 1406 1408 1410 1406 1423 1427 1429 1434 1437 1439 1442 1443 1443 1443 1443 1442 1441 1440 1439 1438 1436 1433 1430
1229 1235 1242 1249 1255 1261 1266 1273 1278 1284 1289 1298 1304 1308 1310 1309 1306 1302 1307 1315 1328 1337 1343 1352 1359 1366 1378 1387 1389 1396 1402 1401 1396 1395 1410 1418 1425 1429 1433 1436 1439 1440 1440 1441 1440 1441 1441 1440 1440 1439 1437 1435 1432 1428
1235 1242 1248 1254 1261 1268 1274 1278 1284 1288 1295 1301 1305 1306 1307 1305 1307 1311 1315 1324 1334 1337 1344 1349 1358 1368 1375 1379 1382 1388 1387 1387 1392 1403 1412 1419 1423 1428 1433 1436 1436 1437 1438 1438 1440 1441 1441 1440 1439 1438 1436 1433 1430 1427
1240 1249 1257 1264 1270 1274 1279 1280 1286 1293 1300 1305 1310 1309 1311 1316 1318 1323 1327 1331 1336 1339 1342 1346 1355 1362 1370 1373 1374 1374 1381 1393 1399 1407 1414 1418 1423 1428 1431 1432 1433 1434 1436 1438 1440 1441 1440 1439 1437 1436 1434 1431 1428 1426
1251 1259 1265 1270 1275 1279 1284 1286 1292 1303 1312 1317 1318 1324 1324 1324 1327 1330 1334 1336 1338 1340 1343 1348 1355 1361 1366 1365 1375 1385 1390 1398 1406 1411 1416 1419 1423 1426 1429 1430 1431 1434 1436 1438 1439 1440 1439 1438 1436 1435 1432 1429 1426 1423
1261 1266 1271 1273 1272 1278 1286 1296 1300 1314 1323 1324 1327 1327 1329 1332 1335 1336 1337 1340 1342 1343 1347 1352 1354 1358 1361 1364 1376 1388 1394 1400 1404 1412 1418 1419 1421 1424 1426 1428 1431 1434 1437 1438 1438 1438 1438 1437 1436 1433 1431 1428 1425 1421
1269 1272 1276 1278 1279 1285 1294 1305 1308 1316 1326 1330 1331 1334 1338 1341 1343 1344 1346 1347 1346 1347 1352 1357 1360 1365 1371 1377 1383 1388 1393 1399 1405 1411 1415 1419 1421 1423 1425 1428 1432 1434 1435 1436 1436 1436 1436 1435 1434 1432 1429 1426 1423 1419
1276 1278 1279 1280 1284 1287 1297 1307 1312 1323 1329 1334 1340 1343 1347 1349 1349 1349 1348 1348 1349 1352 1359 1367 1374 1377 1378 1383 1387 1388 1395 1401 1403 1407 1412 1416 1419 1423 1426 1429 1430 1432 1434 1435 1434 1435 1434 1433 1431 1429 1427 1424 1421 1418
1279 1280 1283 1286 1290 1298 1308 1315 1319 1325 1330 1336 1341 1342 1347 1351 1349 1351 1353 1350 1359 1367 1370 1375 1377 1379 1381 1383 1391 1395 1397 1398 1404 1407 1410 1414 1419 1423 1426 1427 1429 1431 1432 1432 1433 1432 1432 1431 1428 1427 1425 1422 1420 1417
1279 1281 1285 1289 1295 1307 1321 1319 1321 1326 1331 1335 1337 1341 1345 1349 1353 1355 1358 1364 1370 1372 1372 1374 1377 1380 1383 1388 1391 1392 1397 1401 1404 1408 1412 1416 1419 1422 1424 1426 1427 1428 1429 1430 1429 1429 1429 1427 1427 1424 1423 1421 1419 1415
1281 1284 1291 1296 1302 1315 1319 1321 1324 1328 1333 1335 1339 1344 1353 1355 1356 1357 1357 1362 1368 1369 1372 1374 1374 1382 1389 1389 1390 1396 1400 1403 1406 1409 1413 1416 1418 1421 1423 1424 1425 1426 1426 1427 1426 1426 1426 1425 1424 1423 1421 1419 1417 1413
1290 1302 1304 1309 1311 1316 1321 1325 1327 1332 1337 1339 1343 1345 1350 1354 1355 1355 1353 1360 1365 1370 1372 1375 1379 1383 1383 1389 1394 1398 1401 1404 1406 1409 1412 1415 1417 1419 1421 1423 1423 1424 1422 1423 1423 1423 1424 1423 1422 1420 1418 1417 1414 1412
1302 1310 1310 1312 1316 1317 1320 1325 1328 1330 1334 1339 1346 1348 1349 1350 1353 1352 1352 1360 1363 1367 1370 1372 1374 1380 1387 1391 1394 1397 1400 1403 1406 1408 1411 1413 1415 1416 1418 1420 1420 1420 1419 1419 1420 1420 1421 1420 1419 1417 1416 1415 1413 1410
1304 1309 1310 1310 1309 1311 1318 1321 1324 1330 1337 1340 1343 1347 1348 1346 1349 1354 1358 1360 1362 1365 1369 1374 1379 1383 1386 1390 1393 1395 1398 1401 1404 1407 1408 1410 1413 1414 1415 1417 1418 1418 1416 1417 1417 1417 1417 1416 1416 1415 1413 1412 1410 1408
1311 1313 1315 1316 1315 1318 1322 1327 1331 1334 1334 1334 1338 1341 1342 1343 1351 1357 1358 1360 1362 1365 1371 1376 1380 1383 1386 1388 1390 1393 1395 1398 1401 1403 1405 1407 1408 1409 1411 1412 1414 1414 1414 1415 1415 1415 1414 1413 1412 1411 1410 1409 1407 1405
1317 1318 1320 1322 1321 1323 1326 1329 1330 1334 1334 1334 1338 1343 1349 1355 1359 1361 1362 1364 1365 1369 1372 1374 1378 1381 1384 1387 1390 1392 1394 1396 1399 1401 1403 1405 1406 1407 1408 1409 1410 1411 1411 1412 1412 1412 1412 1411 1410 1409 1407 1406 1405 1404
1321 1320 1321 1323 1325 1331 1337 1336 1337 1338 1340 1341 1344 1350 1356 1360 1362 1363 1365 1366 1368 1371 1374 1376 1379 1381 1383 1386 1388 1391 1393 1395 1398 1400 1401 1403 1404 1405 1406 1406 1406 1407 1408 1409 1409 1408 1408 1408 1407 1406 1405 1404 1404 1402
1323 1323 1326 1330 1337 1342 1342 1343 1344 1345 1346 1348 1349 1351 1356 1361 1364 1366 1368 1370 1372 1373 1375 1377 1379 1381 1383 1385 1387 1389 1391 1393 1395 1397 1399 1400 1401 1403 1403 1403 1404 1405 1405 1406 1406 1406 1406 1405 1405 1405 1404 1403 1401 1400
1328 1328 1329 1334 1342 1345 1345 1346 1348 1350 1352 1353 1356 1357 1360 1362 1366 1369 1369 1371 1373 1374 1375 1377 1379 1381 1383 1385 1387 1388 1389 1391 1392 1394 1396 1398 1399 1399 1400 1401 1402 1403 1403 1403 1403 1403 1403 1403 1402 1402 1401 1400 1399 1397
1333 1333 1334 1338 1342 1345 1348 1348 1350 1354 1355 1358 1360 1361 1362 1363 1366 1369 1369 1370 1372 1373 1375 1377 1378 1380 1382 1384 1385 1386 1388 1390 1391 1393 1394 1395 1396 1397 1398 1399 1399 1400 1400 1401 1401 1400 1400 1400 1399 1399 1398 1397 1396 1394
Wind_Speed
56 57 53 51 52 49 49 50 52 52 51 51 49 48 46 43 40 41 40 42 27 15 9 12 11 22 26 30 9 12 8 1 2 4 4 4 4 7 6 14 6 10 8 5 5 5 7 9 6 2 3 2 4 4
53 50 49 49 49 48 46 51 53 51 50 49 47 46 44 39 38 38 29 37 33 15 5 9 4 16 25 27 29 27 3 8 11 4 3 3 2 3 6 3 11 5 5 2 5 1 5 2 2 4 7 6 10 15
45 46 48 45 47 48 45 49 50 49 49 46 46 43 40 36 36 35 33 29 27 9 4 6 1 9 18 23 31 14 8 14 12 9 5 2 4 4 5 4 2 4 6 3 3 2 7 10 9 12 14 18 19 21
41 42 42 44 46 48 44 44 44 44 43 43 40 37 37 35 33 34 39 35 34 14 4 5 4 4 8 17 27 27 23 21 24 17 5 3 2 8 3 4 5 4 8 2 4 8 12 15 7 11 13 16 19 21
39 39 43 43 44 43 42 41 41 41 40 37 36 35 33 32 32 34 35 39 38 21 5 4 10 9 9 8 14 14 17 29 18 6 2 2 4 4 4 1 6 11 4 4 3 3 3 11 13 15 17 20 21 23
37 41 45 40 40 40 39 39 38 36 35 33 35 31 31 33 36 35 18 44 48 32 13 2 5 13 15 18 20 21 25 19 8 7 4 5 3 4 4 3 7 4 1 2 2 8 10 13 14 16 19 20 22 25
37 41 40 41 40 38 37 36 36 34 33 30 30 34 25 39 38 50 11 28 48 28 11 6 4 4 14 17 17 16 12 9 7 5 6 8 6 3 1 2 9 4 3 4 5 8 10 11 18 19 20 20 21 20
42 43 40 38 37 37 36 33 31 29 31 33 33 28 23 42 36 28 26 36 42 17 10 5 4 5 8 4 5 5 7 5 4 2 2 6 5 4 3 4 7 3 4 4 6 9 11 13 15 18 20 21 23 21
36 36 37 38 35 34 31 29 28 27 27 34 30 40 39 21 14 29 34 33 24 9 7 5 8 5 10 5 7 5 4 2 3 3 3 5 3 3 3 7 6 6 3 6 8 12 15 16 18 20 23 23 21 21
37 37 36 36 33 32 34 30 29 28 30 35 42 8 7 15 47 35 10 4 6 6 5 3 9 5 15 9 5 7 5 4 4 3 8 3 4 11 7 5 7 6 8 11 12 14 15 15 17 16 15 16 19 22
37 37 36 33 32 30 31 34 32 37 48 28 6 6 33 14 8 7 5 4 4 3 6 9 19 11 15 4 6 6 4 3 4 3 4 5 4 5 9 9 8 9 11 11 10 10 10 10 13 14 15 16 17 20
29 30 30 31 30 30 31 37 44 44 17 13 25 20 9 4 5 4 3 4 5 6 8 10 22 19 14 10 4 4 3 2 3 9 3 6 5 14 12 10 9 6 7 9 8 7 8 11 13 13 14 17 19 17
26 26 25 23 26 26 41 56 43 29 39 41 12 5 3 2 3 8 11 5 7 8 21 29 15 11 6 5 4 3 3 3 15 3 5 3 15 12 11 10 7 9 5 3 5 6 8 10 12 14 14 17 16 14
24 24 24 31 45 55 51 36 38 43 15 6 4 6 3 4 4 2 6 9 11 31 34 28 14 4 6 3 3 4 4 5 5 6 5 5 15 16 12 8 6 4 3 4 6 7 10 12 14 15 15 17 14 20
28 32 40 51 51 44 45 50 35 18 6 5 3 3 1 2 1 19 26 30 37 40 31 17 10 9 4 4 3 5 6 5 5 3 6 19 18 14 11 7 5 5 4 6 7 8 12 13 15 14 14 15 14 21
45 51 52 50 45 49 44 27 15 8 5 4 5 5 1 7 9 20 29 33 34 29 19 9 4 4 3 6 4 5 9 5 5 6 21 19 16 13 9 8 6 6 6 6 6 7 8 11 12 13 14 13 17 17
49 39 50 50 41 28 18 15 7 6 6 5 4 7 16 20 17 24 28 28 26 10 3 4 4 3 5 4 4 3 3 7 20 22 18 17 15 13 12 9 8 8 6 5 5 6 8 9 11 11 12 14 15 15
56 54 48 31 28 29 22 10 7 8 7 10 4 13 18 20 20 21 20 15 11 8 5 3 6 4 4 5 5 7 21 23 20 20 17 16 15 12 10 9 7 7 4 2 3 5 7 8 9 10 12 13 14 15
42 36 29 20 19 8 6 8 8 5 7 12 17 17 19 17 18 18 18 16 15 12 9 3 3 3 3 7 15 23 23 24 22 17 16 14 12 11 11 9 7 5 2 0 2 4 5 7 8 9 11 12 13 15
19 14 13 19 15 5 6 6 7 8 4 9 17 16 10 12 14 13 13 11 10 6 4 3 5 12 17 21 23 25 26 24 24 21 15 11 10 11 8 7 6 4 2 2 2 5 4 5 6 8 10 11 13 15
20 20 18 17 10 11 8 6 8 11 13 9 18 16 12 11 10 10 10 7 8 4 4 11 18 21 24 24 24 24 23 20 16 15 16 14 11 10 9 7 6 4 4 3 2 3 4 5 6 7 9 12 13 13
15 13 10 6 7 7 9 9 11 12 8 14 12 8 7 4 5 5 4 9 6 6 11 19 20 23 24 24 21 20 19 18 15 15 15 15 13 11 10 8 7 6 5 4 3 3 3 5 7 7 9 12 11 13
7 7 6 6 6 6 3 2 5 4 4 6 9 4 3 3 4 6 3 4 7 12 21 23 21 20 24 21 20 18 14 13 12 11 13 11 11 10 10 9 8 8 6 5 4 3 3 8 7 8 9 10 12 13
4 6 6 6 8 4 4 3 5 5 7 4 3 4 4 3 7 3 3 5 13 17 21 22 23 22 18 16 15 14 13 11 11 11 11 12 12 10 9 8 7 6 6 7 5 4 5 6 7 6 9 9 12 12
4 7 5 6 4 4 4 3 3 3 3 3 3 3 3 6 4 3 3 7 16 17 20 20 18 16 16 14 13 12 12 12 12 12 11 11 11 11 10 8 7 6 8 6 5 5 6 7 5 7 7 9 12 11
6 5 3 2 3 4 4 4 4 5 4 3 2 6 4 3 3 3 2 12 18 22 25 22 20 17 14 14 15 14 13 13 12 11 11 11 12 13 12 11 10 8 9 8 8 6 6 8 6 6 6 8 11 12
4 4 5 4 6 8 6 9 10 5 3 4 5 5 4 3 3 3 5 5 10 17 21 18 16 15 15 15 14 14 14 13 13 12 13 12 11 10 11 11 11 10 14 10 8 7 6 7 5 6 6 7 8 10
5 3 4 4 5 6 4 4 3 2 2 5 5 2 3 2 3 4 4 3 7 16 20 16 14 14 16 18 19 18 18 18 18 17 15 15 14 13 12 12 12 12 12 10 9 8 7 6 5 5 6 8 8 9
4 6 7 3 4 5 5 3 3 4 3 5 2 3 3 5 5 5 8 12 15 25 23 22 20 20 19 16 15 15 15 17 19 18 14 11 11 11 11 10 9 10 10 9 8 8 7 7 7 7 7 8 7 7
3 5 4 5 4 4 6 8 6 10 13 10 7 12 11 10 10 11 13 16 20 21 21 20 18 16 15 13 12 12 13 15 15 13 12 10 8 10 8 9 9 8 8 8 7 7 6 6 6 5 7 8 7 10
4 4 5 6 4 4 6 9 10 10 9 11 15 15 10 8 10 11 12 12 14 15 16 14 14 13 12 11 10 11 13 16 16 15 14 13 11 9 8 8 8 8 7 7 7 6 6 6 5 6 6 8 10 10
5 5 3 4 4 4 5 4 4 4 4 4 4 5 4 5 4 4 9 10 10 10 10 11 13 14 12 10 8 10 9 11 12 14 12 10 9 8 7 8 7 7 7 6 6 7 8 7 7 7 8 8 9 11
5 11 11 8 4 3 2 3 3 3 4 3 3 3 3 4 4 2 4 8 10 10 9 10 11 12 12 12 10 9 11 9 9 11 11 9 8 7 7 7 7 7 7 7 7 8 8 8 9 9 9 10 11 11
Wind_Direction
209 207 206 208 207 208 207 208 208 209 211 209 207 207 207 210 207 209 222 228 238 224 250 222 217 193 193 190 172 143 104 114 91 160 200 190 207 200 241 242 191 186 185 196 203 236 253 110 126 180 68 128 215 247
187 193 200 201 202 203 206 207 208 206 206 203 202 204 206 206 207 208 218 226 227 227 184 202 159 181 193 184 176 166 168 150 165 166 172 182 189 216 228 232 206 204 212 165 227 223 141 163 142 244 258 248 285 289
191 193 194 197 194 198 198 201 205 199 199 196 197 201 202 200 203 208 215 214 210 138 130 149 208 141 172 184 186 144 174 168 165 139 116 155 213 188 185 219 292 239 207 214 8 323 15 355 307 274 263 268 285 292
183 185 185 188 191 192 193 188 190 191 187 192 194 195 199 201 207 209 211 213 210 137 104 17 117 98 162 179 189 195 203 174 161 139 113 163 186 209 198 259 228 210 176 218 274 289 296 290 321 323 308 302 299 301
179 182 183 176 182 182 182 183 180 184 184 188 192 193 198 202 203 208 212 218 210 188 114 129 72 76 108 161 186 186 177 159 136 120 148 174 198 159 226 278 244 225 191 192 225 238 284 298 312 314 309 307 305 304
169 172 170 164 170 171 166 174 176 179 182 186 192 200 198 202 200 196 191 194 202 181 120 108 74 72 105 123 124 137 152 134 125 131 171 154 106 221 186 212 81 32 51 173 330 342 324 311 310 310 312 316 308 303
158 154 159 160 160 167 169 170 171 178 183 192 196 193 199 201 210 190 192 189 189 171 105 123 117 125 107 101 102 106 105 120 131 150 197 158 167 141 234 228 108 71 26 8 336 323 317 319 314 317 316 327 328 321
148 150 157 159 159 160 163 167 176 184 182 182 192 191 195 173 155 160 145 168 168 138 103 118 109 135 141 121 94 114 127 117 153 169 134 135 128 196 225 167 106 102 40 2 357 339 330 339 344 335 333 331 326 326
151 154 153 152 156 160 164 165 166 168 189 179 165 158 144 136 113 121 132 147 146 127 117 144 150 151 158 108 104 132 150 139 139 177 168 133 156 195 175 119 125 65 33 2 1 1 359 353 349 348 346 348 350 357
152 153 153 152 158 164 165 168 174 181 174 156 143 117 97 126 119 116 115 93 62 60 106 135 112 132 153 153 144 148 168 143 159 165 120 222 160 97 110 107 96 73 39 36 34 18 17 9 359 4 8 7 3 354
154 154 155 159 160 163 170 173 175 172 147 139 106 72 121 91 85 68 93 98 129 107 144 131 144 136 154 137 137 151 154 173 172 152 193 182 162 159 131 109 89 76 66 54 37 27 26 20 7 3 5 3 2 355
156 154 158 161 164 167 170 172 168 156 146 146 129 122 139 108 90 104 114 156 173 158 152 140 141 132 135 123 116 135 115 199 140 149 197 168 123 142 132 111 96 82 52 56 47 26 25 12 2 360 353 351 352 348
159 158 160 161 164 170 167 156 158 152 133 123 105 84 135 101 135 172 167 170 143 156 142 146 135 132 117 113 124 122 122 137 131 176 169 86 126 125 129 130 111 97 50 45 37 20 23 15 11 3 356 352 350 352
161 161 157 159 159 156 152 150 143 131 137 90 115 134 208 172 215 260 142 133 126 137 142 140 142 118 130 105 119 118 116 144 181 174 166 146 149 132 124 114 114 88 86 56 34 26 17 11 3 3 351 352 333 338
158 162 159 157 148 145 145 142 140 132 71 87 82 87 84 259 276 100 116 121 130 139 143 124 92 86 102 117 119 122 169 181 198 142 123 131 132 129 120 129 127 115 82 57 40 25 7 348 349 344 342 338 330 341
153 148 143 149 142 139 134 127 116 93 77 69 66 80 116 109 98 110 121 129 147 135 129 101 100 108 113 134 132 177 167 167 131 112 126 130 128 130 139 138 123 104 81 60 35 8 345 336 338 332 332 335 333 335
139 128 141 142 127 123 123 81 63 63 62 44 25 77 113 109 115 122 130 132 142 119 105 114 102 84 128 152 135 142 99 111 115 121 135 138 144 147 147 137 105 94 77 48 10 344 335 330 331 332 334 335 335 335
131 137 134 120 121 94 75 61 74 59 52 38 66 84 98 100 103 107 120 130 127 112 85 85 122 133 146 138 121 109 107 115 124 128 130 135 140 139 135 129 112 97 78 22 350 331 328 332 333 334 334 334 337 339
132 125 121 119 91 76 65 45 61 79 66 82 101 94 88 84 78 83 87 89 92 92 99 88 92 96 85 97 121 122 124 131 131 135 137 136 139 137 128 127 119 119 148 205 326 324 324 328 329 333 335 338 339 338
127 143 125 93 67 87 90 76 76 89 112 119 108 98 85 81 87 85 93 93 86 71 59 50 70 91 111 121 130 134 139 141 141 138 136 136 140 130 124 126 150 166 177 249 295 315 323 330 328 333 333 336 337 341
106 108 96 81 64 66 85 75 77 116 106 112 131 127 126 118 108 89 68 56 55 41 74 106 104 105 112 117 122 133 140 146 144 147 151 145 146 144 154 161 166 164 191 224 238 286 330 328 323 331 328 330 339 344
119 113 110 84 74 67 63 66 109 114 105 132 129 110 107 98 80 50 74 47 58 87 133 132 126 122 121 118 127 132 140 145 145 134 145 153 153 166 173 180 181 195 204 218 232 266 293 303 307 326 333 330 342 333
102 75 71 58 86 69 79 52 92 80 109 135 114 91 93 97 116 118 80 97 115 129 134 135 132 129 125 132 136 135 140 137 129 139 152 151 163 172 178 183 191 200 198 215 234 245 268 288 304 327 326 338 334 334
60 54 43 52 62 87 87 64 90 90 121 125 106 100 118 129 151 191 147 112 136 137 139 136 132 131 134 128 122 133 137 134 139 144 155 163 168 174 181 187 195 201 199 213 229 237 265 286 308 315 323 336 328 337
76 20 49 61 80 100 93 60 62 90 121 132 92 95 110 161 176 184 140 130 156 156 155 152 150 149 135 139 147 152 154 161 162 164 170 172 176 177 182 191 198 205 227 226 237 251 260 283 301 305 328 325 320 338
78 19 50 103 148 129 131 119 142 131 95 77 129 126 152 160 159 141 112 142 161 168 166 159 146 144 155 162 162 167 170 171 171 172 177 182 191 193 192 199 208 234 245 233 234 244 252 271 285 307 321 321 322 330
75 56 50 51 98 100 88 83 93 91 118 139 152 167 175 135 111 85 113 114 158 169 169 154 156 160 160 161 170 175 173 174 177 182 189 179 183 194 203 207 216 224 246 259 256 252 248 263 280 295 310 312 313 320
68 83 89 62 69 81 98 106 125 123 116 135 134 87 81 69 67 52 100 121 173 170 154 152 157 160 162 172 187 190 188 187 183 194 192 197 210 213 220 227 231 240 251 259 257 262 268 271 278 290 297 306 317 325
77 105 99 36 67 66 47 52 79 61 63 96 81 80 79 67 98 121 134 145 154 151 155 155 155 171 177 185 191 201 203 201 196 196 201 206 215 223 229 239 235 239 248 252 248 259 272 283 292 301 309 317 327 339
47 25 81 43 44 57 35 27 70 62 60 72 97 107 90 96 100 121 140 155 163 170 172 172 174 177 183 189 194 201 198 195 200 210 207 207 226 235 231 237 242 244 245 249 253 261 262 282 288 314 330 335 323 310
38 49 68 64 77 69 75 89 87 81 71 64 85 94 106 121 117 125 141 148 163 170 170 172 176 187 191 197 206 202 200 203 203 205 207 217 229 238 241 241 242 250 248 251 258 265 271 289 295 296 301 299 308 320
41 28 112 106 104 96 84 68 66 69 59 72 57 77 98 122 105 138 159 156 166 175 189 196 198 201 201 204 210 218 222 220 217 213 216 222 229 235 239 242 245 250 259 263 266 270 276 277 278 274 280 293 295 306
76 81 95 103 117 110 72 100 86 90 77 78 65 65 46 39 86 170 160 190 185 191 212 211 208 219 213 209 217 219 213 211 210 209 215 224 233 238 243 247 249 255 261 268 274 277 279 281 282 284 290 297 303 307